Maun, Botswana

12:53 AM CAT on May 26, 2017 (GMT +0200)
Maun

Weather History for FBMN - July, 2013

Change the Weather History Date:

Saturday, July 27, 2013

  Actual Average Record
Temperature  
Mean Temperature 65 °F -  
Max Temperature 82 °F 81 °F 91 °F (2002)
Min Temperature 48 °F 52 °F 37 °F (2015)
Growing Degree Days 15 (Base 50)    
Moisture  
Dew Point 34 °F    
Average Humidity 32    
Maximum Humidity 58    
Minimum Humidity 10    
Precipitation  
Precipitation 0.00 in - - ()
Sea Level Pressure  
Sea Level Pressure 30.10 in    
Wind  
Wind Speed 2 mph ()    
Max Wind Speed 7 mph    
Max Gust Speed -    
Visibility 6.0 miles    
Events      
Averages and records for this station are not official NWS values.
T = Trace of Precipitation, MM = Missing Value Source: Averaged Metar Reports

Daily Weather History Graph

Daily Weather History Graph

Search for Another Location

Airport or City:

Trip Planner

Search our weather history database for the weather conditions in past years. The results will help you decide how hot, cold, wet, or windy it might be!

Date:

Astronomy

Jul. 27, 2013 Rise Set
Actual Time 6:58 AM CAT 6:07 PM CAT
Civil Twilight 6:34 AM CAT 6:31 PM CAT
Nautical Twilight 6:08 AM CAT 6:57 PM CAT
Astronomical Twilight 5:41 AM CAT 7:24 PM CAT
Moon 10:58 PM CAT (7/27) 10:14 AM CAT (7/27)
Length of Visible Light 11h 56m
Length of Day
11h 09m
Waning Gibbous, 73% of the Moon is Illuminated
Jul 27
Waning Gibbous
Jul 29
Last Quarter
Aug 6
New
Aug 14
First Quarter
Aug 21
Full

Hourly Weather History & Observations

Time (CAT) Temp. Dew Point Humidity Pressure Visibility Wind Dir Wind Speed Gust Speed Precip Events Conditions
12:00 AM 57.2 °F 33.8 °F 41% 30.15 in - Calm Calm - N/A   Clear
1:00 AM 55.4 °F 32.0 °F 41% 30.15 in - Calm Calm - N/A   Clear
2:00 AM 52 °F 33 °F 37%  in 6 mi Calm Calm - -   Partly Cloudy
3:00 AM 51.8 °F 33.8 °F 50% 30.12 in - Calm Calm - N/A   Clear
5:00 AM 51.8 °F 32.0 °F 47% 30.09 in - ESE 4.6 mph - N/A   Clear
6:00 AM 50.0 °F 32.0 °F 50% 30.09 in - Calm Calm - N/A   Clear
7:00 AM 48.2 °F 33.8 °F 58% 30.12 in - ESE 4.6 mph - N/A   Clear
8:00 AM 50 °F 32 °F 38%  in 6 mi NE 1.2 mph - -   Partly Cloudy
8:00 AM 50.0 °F 32.0 °F 50% 30.12 in - Variable 1.2 mph - N/A   Clear
9:00 AM 60.8 °F 33.8 °F 36% 30.15 in - ENE 5.8 mph - N/A   Clear
10:00 AM 68.0 °F 35.6 °F 30% 30.15 in - NE 4.6 mph - N/A   Clear
11:00 AM 75.2 °F 35.6 °F 24% 30.15 in - NNE 4.6 mph - N/A   Clear
12:00 PM 78.8 °F 33.8 °F 20% 30.12 in - NNW 4.6 mph - N/A   Clear
1:00 PM 78.8 °F 33.8 °F 20% 30.09 in - Variable 1.2 mph - N/A   Clear
2:00 PM 80 °F 34 °F 10%  in 6 mi NW 4.6 mph - -   Partly Cloudy
2:00 PM 80.6 °F 33.8 °F 18% 30.06 in - NW 4.6 mph - N/A   Clear
3:00 PM 80.6 °F 33.8 °F 18% 30.04 in - West 6.9 mph - N/A   Clear
4:00 PM 82.4 °F 33.8 °F 17% 30.04 in - West 4.6 mph - N/A   Clear
5:00 PM 80.6 °F 33.8 °F 18% 30.04 in - Variable 1.2 mph - N/A   Clear
6:00 PM 78.8 °F 35.6 °F 21% 30.04 in - North 4.6 mph - N/A   Clear
7:00 PM 68.0 °F 35.6 °F 30% 30.04 in - North 4.6 mph - N/A   Clear
8:00 PM 68 °F 37 °F 20%  in 6 mi NE 3.5 mph - -   Partly Cloudy
8:00 PM 68.0 °F 37.4 °F 33% 30.06 in - NE 3.5 mph - N/A   Clear
10:00 PM 59.0 °F 37.4 °F 45% 30.09 in - Variable 2.3 mph - N/A   Clear